Tracking 31027 objects as of 19-Jul-2025
HD Live streaming from Space Station
objects crossing your sky now

SL-8 DEB

Track SL-8 DEB now!
10-day predictions


NORAD ID: 21401
Int'l Code: 1991-009BQ
Perigee: 1,498.2 km
Apogee: 1,727.7 km
Inclination: 74.1 °
Period: 118.3 minutes
Semi major axis: 7983 km
RCS: 0.0527 m2 (small)
Launch date: February 12, 1991
Source: Commonwealth of Independent States (former USSR) (CIS)
Launch site: PLESETSK MISSILE AND SPACE COMPLEX (PKMTR)

Note: This is SATELLITE DEBRIS
Your satellite tracking list
FENGYUN 1C DEB
Track 1 satellite(s)




NASA's NSSDC Master Catalog

Two Line Element Set (TLE):
1 21401U 91009BQ  25199.14773440  .00000084  00000-0  94502-3 0  9998
2 21401  74.1342  79.2338 0143720  40.9573  84.8171 12.16965669526056
Source of the keplerian elements: AFSPC